Location: Ravensburg
(47.7866°N, 9.6124°E)
Time: 23:33:37
(UTC+02:00)

AO-85 - Pass Details

Date: 15 March 2026
Orbit: 507 x 686 km, 64.8° (Epoch: 11 April)

Event Time Altitude Azimuth Distance (km) Brightness Sun altitude
Exits shadow 05:06:23 27° 228° (SW) 1,053 ? -15.6°
Maximum altitude 05:08:29 74° 308° (NW) 550 ? -15.3°
Drops below altitude 10° 05:12:22 10° 35° (NE) 1,745 ? -14.6°
Sets 05:14:31 0° 37° (NE) 2,625 ? -14.3°
